Overview Statistics Trail Chart Weather Telemetry Raw packets
 

This is the latest recevied weather packets stored in our database for station/object KO4ZGL-13. If no packets are shown the sender has not sent any weather packets the latest 10 day(s).

<< 30 31 32 33 34 35 36 >>
Time Temp. Humidity Pressure Rain* Wind** Luminosity Snow
1788443054 27.78° C 96% 1018.6 hPa 0 mm - 147 W/m² -
1788442752 27.78° C 97% 1018.3 hPa 0 mm - 118 W/m² -
1788442448 27.78° C 98% 1018.5 hPa 0 mm - 165 W/m² -
1788442143 27.78° C 99% 1018.5 hPa 0 mm - 258 W/m² -
1788441839 27.22° C 99% 1018.6 hPa 0 mm - 258 W/m² -
1788441539 26.67° C 99% 1018.5 hPa 0 mm - 234 W/m² -
1788441233 26.11° C 99% 1018.4 hPa 0 mm - 230 W/m² -
1788440932 26.11° C 99% 1018.7 hPa 0 mm - 209 W/m² -
1788440627 25.56° C 99% 1018.5 hPa 0 mm - 119 W/m² -
1788440326 25.56° C 99% 1018.7 hPa 0 mm - 117 W/m² -
1788440021 25° C 99% 1018.8 hPa 0 mm - 111 W/m² -
1788439720 25° C 99% 1018.9 hPa 0 mm - 100 W/m² -
1788439416 25° C 99% 1019 hPa 0 mm - 82 W/m² -
1788439114 24.44° C 99% 1019.1 hPa 0 mm - 75 W/m² -
1788438809 23.89° C 99% 1018.8 hPa 0 mm - 69 W/m² -
1788438508 23.89° C 99% 1018.7 hPa 0 mm - 59 W/m² -
1788438203 23.89° C 99% 1018.8 hPa 0 mm - 52 W/m² -
1788437901 23.89° C 99% 1018.8 hPa 0 mm - 48 W/m² -
1788437597 23.33° C 99% 1018.5 hPa 0 mm - 54 W/m² -
1788437293 23.33° C 99% 1018.8 hPa 0 mm - 46 W/m² -
1788436986 22.78° C 99% 1018.6 hPa 0 mm - 39 W/m² -
1788436685 22.78° C 99% 1018.5 hPa 0 mm - 36 W/m² -
1788436380 22.78° C 99% 1018.5 hPa 0 mm - 33 W/m² -
1788436080 22.78° C 99% 1018.5 hPa 0 mm - 29 W/m² -
1788435775 22.78° C 99% 1018.3 hPa 0 mm - 26 W/m² -

* Rain latest hour (hover to see other rain measurements)
** Current wind speed in m/s (hover to see current wind gust speed)